Location: ?????????
(54.7630°N, 39.4991°E)
Time: 06:18:59
(UTC+00:00)

SJ 16-02 - Pass Details

Date: 14 April 2026
Orbit: 582 x 592 km, 75.0° (Epoch: 12 May)

Event Time Altitude Azimuth Distance (km) Brightness Sun altitude
Rises 22:15:32 0° 324° (NW) 2,830 5.3 -24.6°
Reaches altitude 10° 22:18:20 10° 305° (NW) 1,921 4.1 -24.5°
Enters shadow 22:19:45 15° 287° (WNW) 1,609 3.5 -24.4°
